Regional Weather Roundup
Issued by NWS

Home | Current Version | Previous Version | Graphics & Text | Print | Product List | Glossary Off
Versions: 1 2 3 4 5 6 7 8 9 10 11 12 13 14 15 16 17 18 19 20 21 22 23 24 25 26

000
ASUS45 KPSR 271610
RWRAZ

ARIZONA HOURLY REGIONAL WEATHER ROUNDUP
NATIONAL WEATHER SERVICE PHOENIX AZ
900 AM MST THU JUL 27 2017

NOTE: FAIR INDICATES FEW OR NO CLOUDS BELOW 12,000 FEET WITH NO
SIGNIFICANT WEATHER AND/OR OBSTRUCTIONS TO VISIBILITY.

AZZ001>003-036-271700-
NORTHWEST ARIZONA

CITY           SKY/WX    TMP DP  RH WIND       PRES   REMARKS
BULLHEAD CITY  MOSUNNY   90  59  35 CALM      29.89S
KINGMAN        SUNNY     86  59  39 NW5       30.10S
$$

AZZ004>008-015-016-018-271700-
NORTH CENTRAL ARIZONA

CITY           SKY/WX    TMP DP  RH WIND       PRES   REMARKS
GRAND CANYON   SUNNY     76  54  46 MISG      30.35S
WILLIAMS       SUNNY     75  55  50 N7        30.35F
PRESCOTT       MOSUNNY   76  61  59 W3        30.22F
FLAGSTAFF      CLOUDY    72  56  57 CALM      30.37S
PAYSON         MOSUNNY   77  59  53 NW5       30.23F
PAGE           SUNNY     84  58  40 CALM      30.15S
$$

AZZ009>014-017-271700-
NORTHEAST ARIZONA

CITY           SKY/WX    TMP DP  RH WIND       PRES   REMARKS
WINSLOW        PTSUNNY   82  57  42 W10       30.20F
SAINT JOHNS    PTSUNNY   79  58  48 VRB3      30.25F
WINDOW ROCK    MOSUNNY   79  53  40 CALM      30.34S
SHOW LOW       CLOUDY    72  54  53 N3        30.32S
$$

AZZ540-542>544-546-548-271700-
GREATER PHOENIX AREA

CITY           SKY/WX    TMP DP  RH WIND       PRES   REMARKS
PHOENIX        MOSUNNY   95  57  27 W7        29.89S
BUCKEYE        SUNNY     93  59  31 W6        29.90F
GLENDALE       MOSUNNY   95  57  28 S6        29.91S
DEER VALLEY    SUNNY     94  59  31 VRB5      29.91S
SCOTTSDALE     SUNNY     93  57  29 SW5       29.94S
MESA-FALCON    MOSUNNY   91  61  35 W6        29.93S
MESA-GATEWAY   MOSUNNY   91  61  35 VRB3      29.93S
CHANDLER       SUNNY     95  63  34 CALM      29.91S
$$

AZZ539-553-271700-
SOUTHWEST MARICOPA COUNTY AND PINAL COUNTY

CITY           SKY/WX    TMP DP  RH WIND       PRES   REMARKS
CASA GRANDE    SUNNY     94  60  32 W9        29.94S
$$

AZZ503-504-507>509-271700-
SOUTHEAST ARIZONA

CITY           SKY/WX    TMP DP  RH WIND       PRES   REMARKS
TUCSON         SUNNY     86  64  47 CALM      30.05R
DAVIS-MONTHAN  MOSUNNY   86  67  53 CALM      30.03S
RYAN FIELD     SUNNY     88  64  45 CALM      30.03F
NOGALES        SUNNY     81  68  64 S5        30.13S
SIERRA VISTA   MOSUNNY   82  59  44 NW5       30.19S
DOUGLAS        MOSUNNY   79  63  57 CALM      30.14S
SAFFORD        MOSUNNY   84  63  49 CALM      30.04S
$$

AZZ532-271700-
SOUTHWEST ARIZONA

CITY           SKY/WX    TMP DP  RH WIND       PRES   REMARKS
YUMA           SUNNY     93  53  25 SW5       29.85S
$$

CAZ041-043-047-048-061-525>527-560>570-271700-
SOUTHERN CALIFORNIA

CITY           SKY/WX    TMP DP  RH WIND       PRES   REMARKS
DOWNTOWN L.A.  SUNNY     75  62  64 CALM      29.96S
L.A. AIRPORT   PTSUNNY   71  65  81 W9        29.97S
SAN DIEGO      CLOUDY    73  66  78 NW6       29.97F
BURBANK        SUNNY     75  60  59 CALM      29.97S
ONTARIO        PTSUNNY   75  62  64 SW3       29.97F
RIVERSIDE      MOSUNNY   76  63  64 CALM      29.97F
PALM SPRINGS   SUNNY     96  62  32 S3        29.88S
EL CENTRO NAS  MOSUNNY   94  53  25 W5        29.85S
IMPERIAL       SUNNY     93  63  36 W6        29.82S
BLYTHE         SUNNY     96  50  20 CALM      29.86S
NEEDLES        SUNNY     97  55  24 CALM      29.90S
$$

NVZ020-UTZ003-271700-
SOUTHERN NEVADA-UTAH

CITY           SKY/WX    TMP DP  RH WIND       PRES   REMARKS
LAS VEGAS      MOSUNNY   91  63  39 NE6       30.01S
SALT LAKE CITY MOSUNNY   76  60  57 S5        30.18F
$$

NMZ009-TXZ055-271700-
NEW MEXICO-WEST TEXAS

CITY           SKY/WX    TMP DP  RH WIND       PRES   REMARKS
ALBUQUERQUE    CLOUDY    75  61  61 SE7       30.28S
EL PASO        MOSUNNY   84  64  50 CALM      30.11S
$$


........................KEY........................
SKY/WX - SKY CONDITION/WEATHER
TMP    - TEMPERATURE IN FAHRENHEIT
DP     - DEW POINT IN FAHRENHEIT
RH     - RELATIVE HUMIDITY IN PERCENT
WIND   - DIRECTION AND SPEED IN MILES PER HOUR (MPH)
VRB    - VARIABLE WIND DIRECTION
PRES   - MEAN SEA LEVEL PRESSURE IN INCHES OF MERCURY
         F - FALLING PRESSURE   R - RISING PRESSURE
         S - STEADY PRESSURE
VSB    - VISIBILITY IN MILES
HX     - HEAT INDEX IN FAHRENHEIT
WCI    - WIND CHILL INDEX IN FAHRENHEIT
TC     - TEMPERATURE IN CELSIUS WHICH IS ALSO KNOWN AS
         TEMPERATURE IN CENTIGRADE
AFB    - AIR FORCE BASE
         LUKE AFB IS LUKE AIR FORCE BASE
         DAVIS-MONTHAN IS DAVIS-MONTHAN AIR FORCE BASE
NAS    - NAVAL AIR STATION
         EL CENTRO NAS IS EL CENTRO NAVAL AIR STATION
N/A    - NOT AVAILABLE





USA.gov is the U.S. government's official web portal to all federal, state and local government web resources and services.